Regional Weather Roundup
Issued by NWS

Home | Current Version | Previous Version | Text Only | Print | Product List | Glossary On
Versions: 1 2 3 4 5 6 7 8 9 10 11 12 13 14 15 16 17 18 19 20 21 22 23 24 25 26 27 28 29 30 31 32 33 34 35 36 37 38 39 40 41 42 43 44 45 46 47 48 49 50
029
ASUS43 KMKX 231811
RWRWI

WISCONSIN REGIONAL WEATHER ROUNDUP
NATIONAL WEATHER SERVICE MILWAUKEE/SULLIVAN WI
100 PM CDT TUE AUG 23 2016

NOTE: "FAIR" INDICATES FEW OR NO CLOUDS BELOW 12,000 FEET WITH NO
SIGNIFICANT WEATHER AND/OR OBSTRUCTIONS TO VISIBILITY.

WIZ001-002-006>008-014>016-023>028-231900-
NORTHWEST WISCONSIN

CITY           SKY/WX    TMP DP  RH WIND       PRES   REMARKS
SUPERIOR ARPT  SUNNY     82  67  58 S13G21    29.87F HX  85
6HR MIN TEMP:  66; 6HR MAX TEMP:  82;

ASHLAND        SUNNY     83  66  56 S13       29.92F HX  85
6HR MIN TEMP:  67; 6HR MAX TEMP:  83;

HAYWARD        SUNNY     81  64  56 S15       29.96F HX  82
6HR MIN TEMP:  65; 6HR MAX TEMP:  81;

SIREN          SUNNY     82  64  53 S17       29.93F HX  83
6HR MIN TEMP:  67; 6HR MAX TEMP:  82;

CUMBERLAND     SUNNY     77  63  61 S14G22    29.97F
RICE LAKE      SUNNY     78  64  60 SE17G23   29.99F HX  80
6HR MIN TEMP:  64; 6HR MAX TEMP:  79;

CHETEK         NOT AVBL
LADYSMITH      SUNNY     80  65  60 S14G20    30.03S HX  82
6HR MIN TEMP:  61; 6HR MAX TEMP:  80;

EAU CLAIRE     MOSUNNY   82  63  52 S16       29.99F HX  83
6HR MIN TEMP:  65; 6HR MAX TEMP:  82;

MENOMONIE      CLOUDY    82  64  55 S16       29.98F HX  83
6HR MIN TEMP:  62; 6HR MAX TEMP:  82;

NEW RICHMOND   MOSUNNY   80  64  58 S17       29.95F HX  81
6HR MIN TEMP:  64; 6HR MAX TEMP:  80;

OSCEOLA        MOSUNNY   80  66  62 S16       29.95F HX  82
6HR MIN TEMP:  65; 6HR MAX TEMP:  80;

$$

WIZ003>005-009-010-017-018-231900-
NORTH CENTRAL WISCONSIN

CITY           SKY/WX    TMP DP  RH WIND       PRES   REMARKS
MANITOWISH WTR NOT AVBL
ARBOR VITAE    SUNNY     80  65  59 S16       30.03F HX  81
6HR MIN TEMP:  62; 6HR MAX TEMP:  80;

WOODRUFF       SUNNY     80  65  59 S16       30.03F HX  81
6HR MIN TEMP:  62; 6HR MAX TEMP:  80;

RHINELANDER    SUNNY     78  64  61 S13G21    30.06F HX  80
6HR MIN TEMP:  61; 6HR MAX TEMP:  78;

EAGLE RIVER    SUNNY     78  59  51 S6G22     30.04F
6HR MIN TEMP:  62; 6HR MAX TEMP:  78;

LAND O LAKES   SUNNY     80  59  49 S10G17    30.05S HX  80
6HR MIN TEMP:  61; 6HR MAX TEMP:  80; 6HR PCP:  0.02;

PHILLIPS       SUNNY     78  65  65 SW13G21   30.02S
6HR MIN TEMP:  61; 6HR MAX TEMP:  78;

TOMAHAWK       SUNNY     78  64  60 S3        30.06S HX  80
6HR MIN TEMP:  56; 6HR MAX TEMP:  79;

MEDFORD        MOSUNNY   76  64  67 S16       30.06F
6HR MIN TEMP:  59; 6HR MAX TEMP:  76;

MERRILL        SUNNY     78  65  64 SW12G17   30.07S HX  80
6HR MIN TEMP:  63; 6HR MAX TEMP:  78;

$$

WIZ029-030-035-036-043>047-231900-
CENTRAL WISCONSIN

CITY           SKY/WX    TMP DP  RH WIND       PRES   REMARKS
WAUSAU         SUNNY     77  62  59 SW13      30.06F
6HR MIN TEMP:  61; 6HR MAX TEMP:  79;

MOSINEE        SUNNY     75  64  69 S12G17    30.09F
MARSHFIELD     PTSUNNY   79  63  57 S14       30.07S HX  80
6HR MIN TEMP:  59; 6HR MAX TEMP:  80;

STEVENS POINT  MOSUNNY   79  62  55 S14G20    30.09F HX  80
6HR MIN TEMP:  60; 6HR MAX TEMP:  79;

WAUPACA        MOSUNNY   82  62  51 S14       30.10S HX  82
6HR MIN TEMP:  60; 6HR MAX TEMP:  82;

WAUTOMA        CLOUDY    80  64  58 S12G20    30.10F HX  82
6HR MIN TEMP:  57; 6HR MAX TEMP:  81;

WISC RAPIDS    PTSUNNY   80  64  58 SW12G18   30.10S HX  82
6HR MIN TEMP:  62; 6HR MAX TEMP:  80;

CAMP DOUGLAS   PTSUNNY   79  64  61 S12G20    30.08F HX  81
$$

WIZ011>013-019>022-031-037>040-048>050-231900-
NORTHEAST WISCONSIN

CITY           SKY/WX    TMP DP  RH WIND       PRES   REMARKS
ANTIGO         SUNNY     78  64  61 S12G20    30.09F HX  80
6HR MIN TEMP:  58; 6HR MAX TEMP:  78;

SHAWANO        SUNNY     81  62  51 S10G16    30.09F HX  82
6HR MIN TEMP:  62; 6HR MAX TEMP:  82;

OCONTO         NOT AVBL
STURGEON BAY   SUNNY     80  62  54 S13       30.11F HX  81
6HR MIN TEMP:  65; 6HR MAX TEMP:  80;

GREEN BAY      SUNNY     79  64  60 S13G21    30.11F HX  81
6HR MIN TEMP:  61; 6HR MAX TEMP:  79;

MANITOWOC      SUNNY     76  61  59 S17       30.14F
6HR MIN TEMP:  63; 6HR MAX TEMP:  78;

APPLETON       PTSUNNY   79  57  47 SW16      30.11F HX  80
CLINTONVILLE   SUNNY     81  61  50 S13       30.09F HX  81
OSHKOSH        MOSUNNY   79  62  56 S15G21    30.11F HX  80
6HR MIN TEMP:  61; 6HR MAX TEMP:  80;

$$

WIZ032>034-041-042-053>061-231900-
SOUTHWEST WISCONSIN

CITY           SKY/WX    TMP DP  RH WIND       PRES   REMARKS
LA CROSSE      CLOUDY    84  72  67 S16       30.03F HX  89
6HR MIN TEMP:  68; 6HR MAX TEMP:  84;

SPARTA         MOSUNNY   80  63  56 S15G24    30.07S HX  81
6HR MIN TEMP:  64; 6HR MAX TEMP:  81;

VIROQUA        CLOUDY    78  63  58 S10G23    30.09F HX  80
6HR MIN TEMP:  62; 6HR MAX TEMP:  79;

BOSCOBEL       MOSUNNY   82  63  52 VRB7      30.08F HX  83
6HR MIN TEMP:  61; 6HR MAX TEMP:  82;

PRAIRIE DU CHI SUNNY     81  61  49 SE9G16    30.06F HX  82
6HR MIN TEMP:  62; 6HR MAX TEMP:  82;

PLATTEVILLE    MOSUNNY   77  67  70 S14G21    30.12F
6HR MIN TEMP:  60; 6HR MAX TEMP:  78;

$$

WIZ056-057-062-063-064-067-068-231900-
SOUTH CENTRAL WISCONSIN

CITY           SKY/WX    TMP DP  RH WIND       PRES   REMARKS
REEDSBURG      NOT AVBL
BARABOO/DELLS  MOSUNNY   78  63  58 S13G18    30.11F HX  80
6HR MIN TEMP:  63; 6HR MAX TEMP:  78;

LONE ROCK      PTSUNNY   80  63  55 S16       30.10F HX  81
6HR MIN TEMP:  61; 6HR MAX TEMP:  80;

MINERAL POINT  PTSUNNY   79  63  57 S10       30.12F HX  80
MADISON        PTSUNNY   78  62  57 S16G26    30.12F HX  80
6HR MIN TEMP:  63; 6HR MAX TEMP:  79;

MIDDLETON      MOSUNNY   80  62  52 S14       30.13F HX  81
6HR MIN TEMP:  63; 6HR MAX TEMP:  80;

WATERTOWN      PTSUNNY   78  64  61 S13       30.14F HX  80
6HR MIN TEMP:  58; 6HR MAX TEMP:  79;

MONROE         MOSUNNY   77  63  61 S14G22    30.14F
JANESVILLE     PTSUNNY   81  61  50 SW12G17   30.15F HX  81
$$

WIZ051-052-058>065-066-070>072-231900-
SOUTHEAST WISCONSIN

CITY           SKY/WX    TMP DP  RH WIND       PRES   REMARKS
MILWAUKEE      PTSUNNY   80  60  50 SW14      30.15F HX  81
6HR MIN TEMP:  64; 6HR MAX TEMP:  82;

WAUKESHA       PTSUNNY   79  57  47 SW16      30.17F HX  80
MILWAUKEE/TIMM MOSUNNY   79  55  44 S10G22    30.16F
RACINE         PTSUNNY   81  62  52 S13       30.18F HX  82
6HR MIN TEMP:  65; 6HR MAX TEMP:  81;

BURLINGTON     MOSUNNY   77  60  55 S12G18    30.17S
6HR MIN TEMP:  55; 6HR MAX TEMP:  80;

KENOSHA        MOSUNNY   80  61  52 SW13      30.17F HX  81
6HR MIN TEMP:  62; 6HR MAX TEMP:  81;

FOND DU LAC    MOSUNNY   78  63  59 MISG      30.12F HX  80
6HR MIN TEMP:  63; 6HR MAX TEMP:  80;

SHEBOYGAN      MOSUNNY   80  60  50 S14       30.14F HX  81
6HR MIN TEMP:  60; 6HR MAX TEMP:  82;

WEST BEND      PTSUNNY   79  59  50 SW12      30.15F HX  80
JUNEAU         MOSUNNY   77  63  61 S16       30.15F
6HR MIN TEMP:  60; 6HR MAX TEMP:  78;

$$

LSZ147-162-231900-
LAKE SUPERIOR

STATION/POSITION TIME  TEMP    WIND        PRES    WAVE
                       AIR SEA DIR/SP/G            HT/PER
                 (UTC) (F)     (DEG/KT/KT) (MB)    (FT/S)
W MID LAKE BUOY  1750   71 67  180/  8/ 10 1012.5F   2/ 4
DEVILS ISLAND    1800   79     180/ 11/ 16 1012.1F
SAXON HARBOR     1740   83     190/ 11/ 21 1012.9F
$$

LMZ867-665-643>646-231900-
LAKE MICHIGAN

STATION/POSITION TIME  TEMP    WIND        PRES    WAVE
                       AIR SEA DIR/SP/G            HT/PER
                 (UTC) (F)     (DEG/KT/KT) (MB)    (FT/S)
CHAMBERS ISLAND  1700   75     190/  8/ 17 1019.0F
S GREEN BAY BUOY 1700   75 73  200/ 14/ 17 1019.1F
N MID LAKE BUOY  1750   71 71  210/ 19/ 23 1018.7F   5/ 6
NORTHPORT PIER   1700   78     150/  7/ 13 1019.0F
SISTER BAY       1622   78     240/ 1C1F1C2F2C3F3C4F4C5F5C6F6C7F7C8M1C9M2Ca!



USA.gov is the U.S. government's official web portal to all federal, state and local government web resources and services.